Simultaneous Nadir Overpasses (SNOs) Predictions

Prediction of SNOs near US between AQUA and NPP Satellite Orbit:

Table of predicted SNOs near US for the next 10.0 days since TLE Epoch: 7/26/2018
Index Date (AQUA) Time (AQUA) AQUA Lat,Lon Date (NPP) Time (NPP) NPP Lat,Lon Distance(km) Time Diff (sec)
1 07/27/2018 19:07:12 49.97, -92.66 07/27/2018 19:01:06 49.67, -94.33 124.12 366
2 07/27/2018 20:46:05 49.95,-117.38 07/27/2018 20:42:34 49.56,-119.65 169.37 211
3 08/02/2018 07:19:46 49.92, -76.17 08/02/2018 07:20:09 50.28, -78.10 143.96 23
4 08/02/2018 08:58:39 49.93,-100.88 08/02/2018 09:01:36 50.45,-103.40 188.39 177
5 08/04/2018 18:18:00 49.97, -80.37 08/04/2018 18:10:28 49.76, -81.70 97.98 452
6 08/04/2018 19:56:53 49.96,-105.09 08/04/2018 19:51:56 49.65,-107.02 143.16 297
7 08/04/2018 21:31:52 36.00,-124.99 08/04/2018 21:29:23 35.57,-127.29 213.59 149




NCC Satellite Simultaneous Nadir Overpasses (SNOs) Prediction Service
